{"data":{"norad_id":60577,"epoch":"2026-05-25T03:57:34.803360Z","epoch_age_seconds":60233,"freshness":"FRESH","line1":"1 60577U 24149DP  26145.16498615  .00010439  00000+0  66902-3 0  9995","line2":"2 60577  97.6744 226.2908 0003348 204.0422 156.0650 15.08713342 96928","mean_motion":15.08713342,"eccentricity":0.0003348,"inclination_deg":97.6744,"raan_deg":226.2908,"arg_perigee_deg":204.0422,"mean_anomaly_deg":156.065,"bstar":0.00066902,"rev_number":9692,"period_min":95.445566756312,"perigee_km":537.81432290502,"apogee_km":542.44679486245,"semimajor_km":6918.2675588837,"source":"CELESTRAK","updated_at":"2026-05-25T13:38:13.536477Z"}}